CW9244 Weather Reports


Display with metric or nautical units.
time (UTC)temp
F
wind
direction
speed
MPH
gust
MPH
rain 1hr
in
rain 24hr
in
rain mn
in
humidity
%
barometer
mb
20260503001525 52 90 0.0 0.0 0.00 0.00 0.00 66 1026.1
20260502234623 54 90 0.0 0.0 0.00 0.00 0.00 62 1026.1
20260502233625 55 90 0.0 0.0 0.00 0.00 0.00 61 1026.2
20260502232625 55 90 0.0 0.0 0.00 0.00 0.00 60 1026.1
20260502225724 56 90 0.0 0.0 0.00 0.00 0.00 58 1026.0
20260502224724 56 90 0.0 0.0 0.00 0.00 0.00 59 1026.3
20260502223727 56 90 0.0 0.0 0.00 0.00 0.00 59 1026.0
20260502222823 56 90 0.0 1.0 0.00 0.00 0.00 59 1026.1
20260502221825 57 180 0.0 0.0 0.00 0.00 0.00 59 1026.1
20260502220824 57 103 1.0 3.0 0.00 0.00 0.00 60 1026.0
20260502215823 57 90 1.0 2.0 0.00 0.00 0.00 60 1026.0
20260502214825 56 225 0.0 0.0 0.00 0.00 0.00 59 1026.1
20260502213825 57 315 1.0 2.0 0.00 0.00 0.00 60 1026.0
20260502212823 56 67 0.0 0.0 0.00 0.00 0.00 59 1025.9
20260502210924 56 3 0.0 3.0 0.00 0.00 0.00 61 1026.0
20260502203924 55 255 0.0 1.0 0.00 0.00 0.00 64 1025.9
20260502202924 56 310 3.0 4.0 0.00 0.00 0.00 64 1026.1
20260502201924 55 1 2.0 4.0 0.00 0.00 0.00 65 1026.2
20260502200923 54 308 2.0 6.0 0.00 0.00 0.00 66 1026.4
20260502195924 54 317 2.0 4.0 0.00 0.00 0.00 66 1026.5
20260502193924 56 316 4.0 7.0 0.00 0.00 0.00 65 1026.6
20260502192923 57 310 4.0 5.0 0.00 0.00 0.00 58 1026.7
20260502191925 59 288 0.0 1.0 0.00 0.00 0.00 56 1026.7
20260502190925 59 337 1.0 3.0 0.00 0.00 0.00 58 1026.8
20260502185925 59 242 2.0 3.0 0.00 0.00 0.00 59 1027.0
20260502184924 58 292 3.0 4.0 0.00 0.00 0.00 61 1026.9
20260502184024 58 260 0.0 2.0 0.00 0.00 0.00 60 1027.0
20260502183025 58 310 2.0 4.0 0.00 0.00 0.00 61 1027.0
20260502182124 57 307 1.0 3.0 0.00 0.00 0.00 60 1027.0
20260502181123 59 248 1.0 3.0 0.00 0.00 0.00 60 1027.1
20260502180124 57 273 1.0 2.0 0.00 0.00 0.00 62 1027.0
20260502163523 56 247 0.0 1.0 0.00 0.00 0.00 66 1027.7
20260502162524 55 90 0.0 0.0 0.00 0.00 0.00 66 1027.6
20260502161527 54 337 1.0 1.0 0.00 0.00 0.00 66 1027.7
20260502151722 53 337 0.0 1.0 0.00 0.00 0.00 72 1028.1
20260502150722 52 337 0.0 1.0 0.00 0.00 0.00 75 1028.2
20260502130725 52 337 0.0 0.0 0.00 0.00 0.00 84 1028.2
20260502123726 51 270 0.0 0.0 0.00 0.00 0.00 85 1028.1
20260502120926 51 202 0.0 0.0 0.00 0.00 0.00 86 1028.2
20260502115026 51 202 0.0 0.0 0.00 0.00 0.00 85 1027.9
20260502114024 50 202 0.0 0.0 0.00 0.00 0.00 85 1027.7
20260502113025 50 202 0.0 0.0 0.00 0.00 0.00 84 1027.5
20260502112023 50 202 0.0 0.0 0.00 0.00 0.00 83 1028.0
20260502110026 50 292 0.0 1.0 0.00 0.00 0.00 83 1028.5
20260502105122 50 315 1.0 3.0 0.00 0.00 0.00 83 1028.1
20260502103223 50 225 0.0 0.0 0.00 0.00 0.00 84 1027.8
20260502102225 50 225 0.0 0.0 0.00 0.00 0.00 84 1027.9
20260502101224 50 225 0.0 1.0 0.00 0.00 0.00 85 1027.8
20260502100224 50 225 0.0 0.0 0.00 0.00 0.00 85 1027.6
20260502091323 50 135 0.0 0.0 0.00 0.00 0.00 84 1027.6
20260502090324 50 67 0.0 0.0 0.00 0.00 0.00 84 1027.6
20260502070623 49 202 0.0 1.0 0.00 0.00 0.00 82 1027.7
20260502065625 49 202 0.0 1.0 0.00 0.00 0.00 81 1027.7
20260502064625 49 202 0.0 1.0 0.00 0.00 0.00 81 1027.8
20260502063624 49 202 0.0 2.0 0.00 0.00 0.00 80 1027.8
20260502062624 50 315 0.0 0.0 0.00 0.00 0.00 80 1027.9
20260502061624 50 202 1.0 2.0 0.00 0.00 0.00 79 1028.2
20260502060624 50 180 0.0 1.0 0.00 0.00 0.00 78 1027.9
20260502055624 50 180 1.0 2.0 0.00 0.00 0.00 77 1027.9
20260502054624 50 180 0.0 1.0 0.00 0.00 0.00 77 1028.0
20260502053625 50 180 0.0 1.0 0.00 0.00 0.00 76 1027.9
20260502052625 50 180 0.0 1.0 0.00 0.00 0.00 76 1027.9
20260502051623 50 247 0.0 0.0 0.00 0.00 0.00 76 1028.1
20260502044626 50 202 0.0 2.0 0.00 0.00 0.00 77 1028.3
20260502042625 49 247 0.0 1.0 0.00 0.00 0.00 77 1028.3
20260502041624 49 202 0.0 1.0 0.00 0.00 0.00 77 1028.5
20260502040624 49 202 0.0 1.0 0.00 0.00 0.00 77 1028.2
20260502035632 49 202 0.0 0.0 0.00 0.00 0.00 77 1028.1
20260502034632 49 202 0.0 2.0 0.00 0.00 0.00 76 1028.2
20260502033732 49 202 0.0 2.0 0.00 0.00 0.00 76 1028.2
20260502032733 49 202 0.0 0.0 0.00 0.00 0.00 76 1028.3
20260502031832 49 202 0.0 1.0 0.00 0.00 0.00 76 1028.4
20260502025834 49 202 0.0 3.0 0.00 0.00 0.00 75 1028.5
20260502024834 49 202 0.0 1.0 0.00 0.00 0.00 74 1028.5
20260502023834 49 202 0.0 2.0 0.00 0.00 0.00 73 1028.5
20260502022832 49 225 0.0 1.0 0.00 0.00 0.00 73 1028.4
20260502021833 49 197 0.0 2.0 0.00 0.00 0.00 72 1028.5
20260502020833 49 202 0.0 0.0 0.00 0.00 0.00 72 1028.5
20260502015833 50 180 0.0 1.0 0.00 0.00 0.00 71 1028.6
20260502014932 50 202 0.0 3.0 0.00 0.00 0.00 71 1028.5
20260502013933 50 202 0.0 1.0 0.00 0.00 0.00 70 1028.4
20260502012932 50 202 0.0 1.0 0.00 0.00 0.00 70 1028.3
20260502011033 50 202 0.0 2.0 0.00 0.00 0.00 70 1028.1
20260502010132 50 202 0.0 0.0 0.00 0.00 0.00 69 1028.1
20260502005134 50 202 0.0 0.0 0.00 0.00 0.00 69 1028.2
20260502004132 50 202 0.0 2.0 0.00 0.00 0.00 68 1028.2
20260502003133 51 202 0.0 1.0 0.00 0.00 0.00 67 1028.1